Weather History for Manteo, NC

Change the Weather History Date:

Tuesday, May 13, 2014

  Actual Average Record
Temperature  
Mean Temperature 78 °F -  
Max Temperature 85 °F 71 °F 90 °F (1980)
Min Temperature 70 °F 58 °F 47 °F (1972)
Cooling Degree Days 12    
Growing Degree Days 28 (Base 50)    
Moisture  
Dew Point 71 °F    
Average Humidity 82    
Maximum Humidity 97    
Minimum Humidity 61    
Precipitation  
Precipitation 0.00 in - - ()
Sea Level Pressure  
Sea Level Pressure 30.13 in    
Wind  
Wind Speed 8 mph (SW)    
Max Wind Speed 13 mph    
Max Gust Speed 16 mph    
Visibility 10 miles    
Events      
Averages and records for this station are not official NWS values.
T = Trace of Precipitation, MM = Missing Value Source: NWS Daily Summary

Daily Weather History Graph

Daily Weather History Graph

Search for Another Location

Airport:

Trip Planner

Search our weather history database for the weather conditions in past years. The results will help you decide how hot, cold, wet, or windy it might be!

Date:

Astronomy

May. 13, 2014 Rise Set
Actual Time 5:58 AM EDT 7:59 PM EDT
Civil Twilight 5:30 AM EDT 8:28 PM EDT
Nautical Twilight 4:56 AM EDT 9:02 PM EDT
Astronomical Twilight 4:19 AM EDT 9:40 PM EDT
Moon 7:01 PM EDT (5/13) 5:10 AM EDT (5/13)
Length of Visible Light 14h 57m
Length of Day
14h 01m
Waxing Gibbous, 98% of the Moon is Illuminated
May 13
Waxing Gibbous
May 14
Full
May 21
Last Quarter
May 28
New
Jun 5
First Quarter

Hourly Weather History & Observations

Time (EDT) Temp. Heat Index Dew Point Humidity Pressure Visibility Wind Dir Wind Speed Gust Speed Precip Events Conditions
12:15 AM 72.9 °F - 70.7 °F 93% 30.13 in 10.0 mi SW 10.4 mph - N/A   Clear
12:35 AM 72.9 °F - 70.7 °F 93% 30.13 in 10.0 mi SW 10.4 mph - N/A   Clear
12:55 AM 72.5 °F - 70.7 °F 94% 30.13 in 10.0 mi SW 9.2 mph - N/A   Clear
1:15 AM 72.3 °F - 70.3 °F 93% 30.13 in 10.0 mi WSW 6.9 mph - N/A   Clear
1:35 AM 72.1 °F - 70.2 °F 93% 30.12 in 10.0 mi SW 8.1 mph - N/A   Clear
1:55 AM 72.0 °F - 70.2 °F 94% 30.12 in 10.0 mi WSW 8.1 mph - N/A   Clear
2:15 AM 72.0 °F - 70.3 °F 95% 30.12 in 10.0 mi WSW 8.1 mph - N/A   Clear
2:35 AM 71.6 °F - 70.2 °F 95% 30.11 in 10.0 mi WSW 8.1 mph - N/A   Clear
2:55 AM 71.6 °F - 70.5 °F 96% 30.11 in 10.0 mi WSW 6.9 mph - N/A   Clear
3:15 AM 71.4 °F - 70.3 °F 96% 30.11 in 10.0 mi West 4.6 mph - N/A   Clear
3:35 AM 71.1 °F - 70.2 °F 97% 30.11 in 10.0 mi WSW 6.9 mph - N/A   Clear
3:55 AM 70.9 °F - 70.0 °F 97% 30.11 in 10.0 mi WSW 6.9 mph - N/A   Clear
4:15 AM 70.9 °F - 69.8 °F 96% 30.10 in 10.0 mi SW 5.8 mph - N/A   Clear
4:35 AM 70.7 °F - 69.8 °F 97% 30.11 in 10.0 mi WSW 5.8 mph - N/A   Clear
4:55 AM 70.3 °F - 69.4 °F 97% 30.11 in 10.0 mi WSW 5.8 mph - N/A   Scattered Clouds
5:15 AM 70.7 °F - 69.8 °F 97% 30.12 in 10.0 mi West 4.6 mph - N/A   Scattered Clouds
5:35 AM 70.7 °F - 69.6 °F 96% 30.12 in 10.0 mi West 5.8 mph - N/A   Clear
5:55 AM 70.5 °F - 69.1 °F 95% 30.13 in 10.0 mi West 4.6 mph - N/A   Clear
6:15 AM 70.2 °F - 68.9 °F 96% 30.13 in 10.0 mi West 3.5 mph - N/A   Clear
6:35 AM 70.7 °F - 69.1 °F 95% 30.14 in 10.0 mi West 5.8 mph - N/A   Clear
6:55 AM 71.2 °F - 69.1 °F 93% 30.14 in 10.0 mi WSW 5.8 mph - N/A   Clear
7:15 AM 71.6 °F - 68.9 °F 91% 30.14 in 10.0 mi WSW 5.8 mph - N/A   Clear
7:35 AM 72.0 °F - 69.1 °F 91% 30.14 in 10.0 mi West 6.9 mph - N/A   Clear
7:55 AM 72.5 °F - 69.3 °F 90% 30.14 in 10.0 mi WSW 8.1 mph - N/A   Clear
9:15 AM 76.6 °F - 70.5 °F 81% 30.15 in 10.0 mi West 4.6 mph - N/A   Clear
9:35 AM 77.2 °F - 70.5 °F 80% 30.15 in 10.0 mi WSW 3.5 mph - N/A   Clear
9:55 AM 78.1 °F - 70.5 °F 77% 30.15 in 10.0 mi SW 3.5 mph - N/A   Clear
10:15 AM 79.3 °F - 70.2 °F 73% 30.15 in 10.0 mi SSW 4.6 mph - N/A   Clear
11:55 AM 82.9 °F 86.5 °F 69.1 °F 63% 30.15 in 10.0 mi WSW 3.5 mph - N/A   Clear
12:35 PM 84.2 °F 88.1 °F 69.4 °F 61% 30.15 in 10.0 mi SW 6.9 mph - N/A   Clear
1:15 PM 84.2 °F 88.1 °F 69.3 °F 61% 30.14 in 10.0 mi West 4.6 mph - N/A   Clear
1:35 PM 83.8 °F 88.3 °F 70.5 °F 64% 30.14 in 10.0 mi SSW 5.8 mph - N/A   Clear
1:55 PM 84.7 °F 91.0 °F 72.9 °F 67% 30.13 in 10.0 mi SSW 8.1 mph - N/A   Clear
2:15 PM 85.6 °F 92.2 °F 72.5 °F 65% 30.13 in 10.0 mi NE 4.6 mph - N/A   Clear
2:35 PM 83.5 °F 89.1 °F 72.5 °F 69% 30.13 in 10.0 mi SSW 10.4 mph - N/A   Clear
2:55 PM 82.8 °F 88.2 °F 72.5 °F 71% 30.13 in 10.0 mi South 10.4 mph - N/A   Clear
3:15 PM 83.7 °F 89.4 °F 72.3 °F 69% 30.12 in 10.0 mi South 8.1 mph - N/A   Clear
3:35 PM 82.9 °F 88.3 °F 72.3 °F 70% 30.12 in 10.0 mi South 9.2 mph - N/A   Clear
3:55 PM 82.0 °F 86.7 °F 72.0 °F 71% 30.11 in 10.0 mi South 10.4 mph - N/A   Clear
4:15 PM 82.2 °F 87.1 °F 72.0 °F 71% 30.11 in 10.0 mi South 10.4 mph - N/A   Clear
4:35 PM 83.1 °F 88.1 °F 71.8 °F 68% 30.11 in 10.0 mi South 10.4 mph - N/A   Clear
4:55 PM 82.6 °F 87.8 °F 72.3 °F 71% 30.10 in 10.0 mi South 12.7 mph 16.1 mph N/A   Clear
5:15 PM 82.4 °F 87.4 °F 72.0 °F 71% 30.10 in 10.0 mi South 12.7 mph - N/A   Clear
5:35 PM 81.9 °F 87.0 °F 73.0 °F 74% 30.11 in 10.0 mi South 10.4 mph - N/A   Clear
5:55 PM 81.7 °F 87.1 °F 73.4 °F 76% 30.10 in 10.0 mi SSW 11.5 mph - N/A   Clear
6:15 PM 81.0 °F 86.0 °F 73.4 °F 78% 30.10 in 10.0 mi South 10.4 mph - N/A   Clear
6:35 PM 81.5 °F 86.9 °F 73.6 °F 77% 30.10 in 10.0 mi South 10.4 mph - N/A   Scattered Clouds
6:55 PM 80.8 °F 85.2 °F 72.5 °F 76% 30.10 in 10.0 mi SSW 9.2 mph - N/A   Scattered Clouds
7:15 PM 80.2 °F 84.2 °F 72.0 °F 76% 30.11 in 10.0 mi South 9.2 mph - N/A   Clear
7:35 PM 80.1 °F 83.8 °F 72.0 °F 76% 30.11 in 10.0 mi South 6.9 mph - N/A   Clear
7:55 PM 79.0 °F - 72.5 °F 80% 30.12 in 10.0 mi SSW 8.1 mph - N/A   Clear
8:15 PM 79.2 °F - 71.8 °F 78% 30.12 in 10.0 mi SSW 9.2 mph - N/A   Clear
8:35 PM 78.4 °F - 70.5 °F 77% 30.13 in 10.0 mi SSW 10.4 mph - N/A   Clear
8:55 PM 78.1 °F - 71.4 °F 80% 30.13 in 10.0 mi SSW 10.4 mph - N/A   Clear
9:15 PM 77.9 °F - 72.5 °F 83% 30.13 in 10.0 mi SSW 11.5 mph - N/A   Clear
9:35 PM 77.4 °F - 72.5 °F 85% 30.14 in 10.0 mi SSW 10.4 mph - N/A   Clear
9:55 PM 77.2 °F - 72.1 °F 84% 30.14 in 10.0 mi SW 10.4 mph - N/A   Clear
10:15 PM 77.0 °F - 71.2 °F 82% 30.15 in 10.0 mi SW 9.2 mph - N/A   Clear
10:35 PM 76.6 °F - 70.7 °F 82% 30.15 in 10.0 mi SW 11.5 mph - N/A   Clear
10:55 PM 76.1 °F - 70.2 °F 82% 30.16 in 10.0 mi SW 11.5 mph - N/A   Clear
11:15 PM 75.4 °F - 69.8 °F 83% 30.16 in 10.0 mi SW 11.5 mph - N/A   Clear
11:35 PM 75.0 °F - 69.8 °F 84% 30.16 in 10.0 mi SW 9.2 mph - N/A   Clear
11:55 PM 74.5 °F - 69.1 °F 83% 30.16 in 10.0 mi SW 9.2 mph - N/A   Clear